sat.trackr.live / text

‹ back to catalog

COSMOS 2601

NORAD 67675 · 2026-023B

PAYLOAD ACTIVE UNKNOWN

§ Identity

Operator
Country
CIS
Launch date
2026-02-05
Launch site
PLMSC
Launch vehicle
Mass (kg)
RCS (m²)

External: N2YO · Heavens-Above · Gunter

§ Orbital elements

Epoch: 2026-09-20T14:13:17.272128Z

Period
94.31 min
Inclination
96.6147°
Eccentricity
0.0017507
Mean motion
15.26844108 rev/d
Perigee alt
473.2 km
Apogee alt
497.3 km
Semi-major
6,863.4 km
B*
2.3689e-4
RAAN
314.2313°
Arg perigee
150.9326°
Mean anomaly
209.2893°
Rev number
3,456

§ Raw data

COSMOS 26011 67675U 26023B   26263.59256102  .00006213  00000+0  23689-3 0  99952 67675  96.6147 314.2313 0017507 150.9326 209.2893 15.26844108 34569

JSON: /api/v1/satellites/67675 · /tle

For live sub-satellite position, see the globe view (requires WebGL).

§ Visibility from observer

Set your observer location to see the next 7 days of passes ≥ 10°. The values pass through the URL so the page stays shareable.

No JS? Fill the form by hand. The geolocation button needs JavaScript.